C/2004 HV60 ( Spacewatch )

Japanese version
Home page
Updated on June 10, 2004

---------------------------------------------------------------------

* Profile

Discovery Date April 25, 2004
Magnitude 21.4 mag
Discoverer J. V. Scotti (Spacewatch survey)

* Orbital Elements

T 2003 Dec. 21.526 TT                                   MPC
q   3.10499              (2000.0)            P               Q
                   Peri.  149.127       -0.586494       -0.400625
                   Node    44.849       -0.779409       +0.042732
e   1.0            Incl.   93.488       +0.220333       -0.915245
>From 19 observations 2004 Apr. 25-May 8.

* Finding Charts

* Magnitudes Graph

        m1 = 13.0 + 5 log d + 10.0 log r

---------------------------------------------------------------------

The orbital elements are published on M.P.E.C. 2004-J34.
The charts are made with StellaNavigator Ver.2.0 for Windows (AstroArts / ASCII).
The magnitudes graphs are made with Comet for Windows.

---------------------------------------------------------------------

Copyright(C) Seiichi Yoshida (comet@aerith.net). All rights reserved.